FMEPFIMP

Guest
Details From FMEP - St Pierre Pierrefonds
To FIMP - Sir Seewoosagur Ramgoolam Intl
Flight Number -
Tags Generated
Created
Modified
Stats Distance 137 nm / 254 km
Max Altitude 0 ft / 0 m
Waypoints 2
Social Downloads 0
Likes 0
Share VATSIM

Download

Looking for another format? Having issues loading an existing format? Contact us
Advertisement - Login to hide

Notes

Generated

Route

FMEP FIMP

ID Type Via Altitude Latitude Longitude Leg Dist Tot Dist Heading (true) Name
O FMEP APT - 0 ft / 0 m -21.31476˚ 55.41658˚ - 0 nm - -
O FIMP APT - 0 ft / 0 m -20.42332˚ 57.66925˚ 137 nm 137 nm 67° / 67° -

Altitude Profile

Advertisement - Login to hide

FMEP

Details ICAO FMEP (ZSE)
Name ST PIERRE PIERREFONDS
Region Comoros, Mayotte, Réunion and Madagascar
Timezone Unknown (UTC+0.0)
Stats Elevation 56 ft / 17 m (AMSL)
Location -21.320039° 55.423581°
Runways 1
Magnetic Variation 19.516° W

METAR

FMEP 260400Z AUTO 04007KT CAVOK 24/13 Q1018 NOSIG

Decode

TAF

Not found

Departure Runways

ID Width Length Bearing (true) Bearing (mag) Surface Threshold Offset Overrun Length
15 98 ft / 30 m 6,125 ft / 1,867 m 129.02° 148.54° Asphalt 0 ft / 0 m 0 ft / 0 m
33 98 ft / 30 m 6,125 ft / 1,867 m 309.01° 328.53° Asphalt 0 ft / 0 m 0 ft / 0 m

FIMP

Details ICAO FIMP (MRU)
Name SIR SEEWOOSAGUR RAMGOOLAM INTL
Region Mauritius
Timezone Indian/Mauritius (UTC+4.0)
Stats Elevation 186 ft / 57 m (AMSL)
Location -20.430235° 57.683602°
Runways 1
Magnetic Variation 18.388° W

METAR

FIMP 260400Z 12011KT 9999 SCT017 25/20 Q1020

Decode

TAF

TAF FIMP 252330Z 2600/2706 10013G25KT 9999 SCT017 PROB30 TEMPO 2606/2612 7000 -SHRA FEW010 BKN014 BKN050

Decode

Destination Runways

ID Width Length Bearing (true) Bearing (mag) Surface Threshold Offset Overrun Length
14 148 ft / 45 m 11,037 ft / 3,364 m 117.22° 135.61° Asphalt 1,082 ft / 330 m 200 ft / 61 m
32 148 ft / 45 m 11,037 ft / 3,364 m 297.21° 315.60° Asphalt 0 ft / 0 m 0 ft / 0 m

Approach Navaids

Runway Type Ident Frequency Range Bearing (true) Bearing (mag) Slope Elevation
14 Localiser IPL 109.90 MHz 18 nm / 33 km 117.52° 135.91° - 186 ft / 57 m (AMSL)
14 Glidescope IPL 109.90 MHz 10 nm / 19 km 117.22° 135.60° 3.50° 186 ft / 57 m (AMSL)
14 DME IPL 109.90 MHz 18 nm / 33 km - - - 186 ft / 57 m (AMSL)

Popular Alternatives